When you browse on this site, cookies collect data to enhance your experience and personalize the content and advertising you see.
Visit our Privacy Policy to learn more. By continuing to use the site, you agree to this use of cookies and data.
EN

Hourly Weather Wickford

Today, 8 August, Saturday

Time Temperature Precipitation Wind Pressure Humidity
00:00 +25°C° 0 mm 2 mps 761 mmHg 48%
01:00 +25°C° 0 mm 1 mps 761 mmHg 49%
02:00 +25°C° 0 mm 1 mps 761 mmHg 51%
03:00 +25°C° 0 mm 1 mps 761 mmHg 52%
04:00 +25°C° 0 mm 1 mps 761 mmHg 53%
05:00 +25°C° 0 mm 1 mps 761 mmHg 55%
06:00 +25°C° 0 mm 1 mps 761 mmHg 56%
07:00 +26°C° 0 mm 1 mps 761 mmHg 52%
08:00 +28°C° 0 mm 1 mps 762 mmHg 49%
09:00 +29°C° 0 mm 2 mps 762 mmHg 45%
10:00 +30°C° 0 mm 2 mps 762 mmHg 43%
11:00 +31°C° 0 mm 2 mps 762 mmHg 41%
12:00 +33°C° 0 mm 3 mps 762 mmHg 38%
13:00 +33°C° 0 mm 3 mps 761 mmHg 39%
14:00 +33°C° 0 mm 3 mps 761 mmHg 40%
15:00 +33°C° 0 mm 4 mps 761 mmHg 41%
16:00 +30°C° 0 mm 4 mps 761 mmHg 45%
17:00 +29°C° 0 mm 4 mps 761 mmHg 50%
18:00 +28°C° 0 mm 4 mps 761 mmHg 55%
19:00 +27°C° 0 mm 4 mps 761 mmHg 57%
20:00 +26°C° 0 mm 4 mps 761 mmHg 60%
21:00 +25°C° 0 mm 4 mps 761 mmHg 62%
22:00 +23°C° 0.3 mm 4 mps 761 mmHg 65%
23:00 +22°C° 0.3 mm 4 mps 761 mmHg 68%

Tomorrow, 9 August, Sunday

Time Temperature Precipitation Wind Pressure Humidity
00:00 +22°C° 0.3 mm 3 mps 760 mmHg 71%
01:00 +21°C° 0.6 mm 3 mps 760 mmHg 73%
02:00 +21°C° 0.6 mm 4 mps 760 mmHg 75%
03:00 +21°C° 0.6 mm 4 mps 760 mmHg 77%
04:00 +21°C° 0.2 mm 4 mps 760 mmHg 77%
05:00 +21°C° 0.2 mm 4 mps 760 mmHg 77%
06:00 +21°C° 0.2 mm 4 mps 759 mmHg 78%
07:00 +23°C° 0 mm 4 mps 759 mmHg 73%
08:00 +25°C° 0 mm 4 mps 759 mmHg 68%
09:00 +27°C° 0 mm 4 mps 759 mmHg 63%
10:00 +28°C° 0 mm 4 mps 759 mmHg 59%
11:00 +29°C° 0 mm 4 mps 759 mmHg 56%
12:00 +30°C° 0 mm 5 mps 759 mmHg 53%
13:00 +30°C° 0 mm 5 mps 758 mmHg 52%
14:00 +30°C° 0 mm 4 mps 758 mmHg 52%
15:00 +30°C° 0 mm 4 mps 758 mmHg 52%
16:00 +29°C° 0 mm 4 mps 758 mmHg 56%
17:00 +28°C° 0 mm 4 mps 758 mmHg 59%
18:00 +27°C° 0 mm 3 mps 757 mmHg 62%
19:00 +26°C° 0 mm 3 mps 757 mmHg 68%
20:00 +25°C° 0 mm 2 mps 757 mmHg 73%
21:00 +23°C° 0 mm 2 mps 758 mmHg 78%
22:00 +23°C° 0 mm 2 mps 757 mmHg 80%
23:00 +21°C° 0 mm 2 mps 757 mmHg 81%

Day after tomorrow, 10 August, Monday

Time Temperature Precipitation Wind Pressure Humidity
00:00 +21°C° 0 mm 2 mps 757 mmHg 83%
01:00 +21°C° 0 mm 2 mps 757 mmHg 84%
02:00 +20°C° 0 mm 2 mps 757 mmHg 86%
03:00 +20°C° 0 mm 2 mps 757 mmHg 88%
04:00 +20°C° 0 mm 2 mps 757 mmHg 86%
05:00 +21°C° 0 mm 1 mps 757 mmHg 85%
06:00 +22°C° 0 mm 1 mps 757 mmHg 84%
07:00 +23°C° 0 mm 1 mps 757 mmHg 77%
08:00 +25°C° 0 mm 1 mps 757 mmHg 71%
09:00 +27°C° 0 mm 1 mps 757 mmHg 65%
10:00 +28°C° 0 mm 1 mps 757 mmHg 60%
11:00 +29°C° 0 mm 1 mps 757 mmHg 55%
12:00 +31°C° 0 mm 2 mps 757 mmHg 51%
13:00 +31°C° 0 mm 2 mps 757 mmHg 49%
14:00 +31°C° 0 mm 3 mps 757 mmHg 47%
15:00 +31°C° 0 mm 3 mps 757 mmHg 46%
16:00 +30°C° 0.4 mm 3 mps 757 mmHg 51%
17:00 +29°C° 0.4 mm 3 mps 757 mmHg 56%
18:00 +28°C° 0.4 mm 2 mps 757 mmHg 61%
19:00 +27°C° 0.1 mm 2 mps 757 mmHg 65%
20:00 +26°C° 0.1 mm 2 mps 757 mmHg 69%
21:00 +25°C° 0.1 mm 2 mps 757 mmHg 72%
22:00 +24°C° 0.4 mm 2 mps 758 mmHg 75%
23:00 +24°C° 0.4 mm 2 mps 758 mmHg 79%

11 August, Tuesday

Time Temperature Precipitation Wind Pressure Humidity
00:00 +23°C° 0.4 mm 2 mps 758 mmHg 82%
01:00 +23°C° 0.3 mm 2 mps 758 mmHg 83%
02:00 +23°C° 0.3 mm 2 mps 758 mmHg 85%
03:00 +22°C° 0.3 mm 1 mps 758 mmHg 86%
04:00 +21°C° 0.1 mm 2 mps 758 mmHg 87%
05:00 +21°C° 0.1 mm 2 mps 758 mmHg 87%
06:00 +21°C° 0.1 mm 2 mps 758 mmHg 87%
07:00 +23°C° 0 mm 2 mps 758 mmHg 82%
08:00 +25°C° 0 mm 3 mps 758 mmHg 77%
09:00 +26°C° 0 mm 3 mps 759 mmHg 72%
10:00 +27°C° 0 mm 3 mps 759 mmHg 68%
11:00 +27°C° 0 mm 3 mps 759 mmHg 64%
12:00 +28°C° 0 mm 3 mps 759 mmHg 60%
13:00 +28°C° 0 mm 3 mps 759 mmHg 62%
14:00 +28°C° 0 mm 4 mps 759 mmHg 64%
15:00 +28°C° 0 mm 4 mps 759 mmHg 65%
16:00 +27°C° 0.1 mm 4 mps 759 mmHg 69%
17:00 +26°C° 0.1 mm 4 mps 759 mmHg 72%
18:00 +25°C° 0.1 mm 4 mps 759 mmHg 75%
19:00 +23°C° 0 mm 4 mps 759 mmHg 79%
20:00 +22°C° 0 mm 4 mps 759 mmHg 82%
21:00 +21°C° 0 mm 3 mps 759 mmHg 86%
22:00 +21°C° 0 mm 3 mps 760 mmHg 88%
23:00 +20°C° 0 mm 3 mps 760 mmHg 90%

12 August, Wednesday

Time Temperature Precipitation Wind Pressure Humidity
00:00 +20°C° 0 mm 3 mps 760 mmHg 92%
01:00 +19°C° 0 mm 3 mps 760 mmHg 92%
02:00 +19°C° 0 mm 4 mps 760 mmHg 92%
03:00 +19°C° 0 mm 4 mps 759 mmHg 92%
04:00 +19°C° 0 mm 4 mps 759 mmHg 91%
05:00 +19°C° 0 mm 4 mps 760 mmHg 91%
06:00 +19°C° 0 mm 5 mps 760 mmHg 90%
07:00 +19°C° 0 mm 5 mps 760 mmHg 86%
08:00 +20°C° 0 mm 5 mps 760 mmHg 82%
09:00 +21°C° 0 mm 5 mps 760 mmHg 79%
10:00 +22°C° 0.1 mm 5 mps 760 mmHg 74%
11:00 +23°C° 0.1 mm 6 mps 760 mmHg 69%
12:00 +24°C° 0.1 mm 6 mps 760 mmHg 64%
13:00 +23°C° 0.4 mm 5 mps 760 mmHg 66%
14:00 +23°C° 0.4 mm 5 mps 759 mmHg 69%
15:00 +23°C° 0.4 mm 4 mps 759 mmHg 71%
16:00 +22°C° 0.6 mm 5 mps 759 mmHg 74%
17:00 +21°C° 0.6 mm 5 mps 759 mmHg 78%
18:00 +20°C° 0.6 mm 6 mps 759 mmHg 82%
19:00 +18°C° 3.4 mm 7 mps 759 mmHg 85%
20:00 +17°C° 3.4 mm 8 mps 759 mmHg 88%
21:00 +16°C° 3.4 mm 8 mps 759 mmHg 91%
22:00 +17°C° 1.1 mm 8 mps 759 mmHg 91%
23:00 +17°C° 1.1 mm 8 mps 759 mmHg 91%

13 August, Thursday

Time Temperature Precipitation Wind Pressure Humidity
00:00 +17°C° 1.1 mm 7 mps 759 mmHg 91%
01:00 +17°C° 2 mm 7 mps 758 mmHg 92%
02:00 +17°C° 2 mm 6 mps 758 mmHg 93%
03:00 +17°C° 2 mm 6 mps 758 mmHg 94%
04:00 +17°C° 1 mm 5 mps 758 mmHg 94%
05:00 +17°C° 1 mm 5 mps 758 mmHg 94%
06:00 +17°C° 1 mm 5 mps 758 mmHg 94%
07:00 +17°C° 0.4 mm 5 mps 758 mmHg 93%
08:00 +17°C° 0.4 mm 5 mps 758 mmHg 93%
09:00 +19°C° 0.4 mm 5 mps 759 mmHg 92%
10:00 +19°C° 0.2 mm 5 mps 759 mmHg 91%
11:00 +19°C° 0.2 mm 5 mps 759 mmHg 90%
12:00 +19°C° 0.2 mm 5 mps 759 mmHg 89%
13:00 +19°C° 0 mm 5 mps 759 mmHg 88%
14:00 +19°C° 0 mm 5 mps 759 mmHg 86%
15:00 +19°C° 0 mm 5 mps 759 mmHg 85%
16:00 +19°C° 0 mm 5 mps 759 mmHg 85%
17:00 +19°C° 0 mm 5 mps 759 mmHg 86%
18:00 +19°C° 0 mm 5 mps 759 mmHg 86%
19:00 +17°C° 0 mm 5 mps 759 mmHg 87%
20:00 +17°C° 0 mm 5 mps 759 mmHg 88%
21:00 +17°C° 0 mm 5 mps 759 mmHg 89%
22:00 +17°C° 0 mm 5 mps 759 mmHg 90%
23:00 +17°C° 0 mm 5 mps 759 mmHg 90%
Show more